STARLINK-11167, 60061

Orbit data source: Space-Track

STARLINK-11167, 60061 is a payload satellite owned by SpaceX/Seattle (US) in LEO that was launched on Wed, 19 Jun 2024 UTC via an FALCON 9 launch vehicle from the Air Force Western Test Range (AFWTR). Payload-class satellites include a variety of spacecraft equipped with specific instruments for various scientific and technological missions. These include communications satellites like Starlink; space stations such as the ISS; scientific satellites like the Hubble; Earth observation satellites from companies like Planet Labs, Umbra, and HawkEye 360; GPS; miniature CubeSats for education and research; and military/defense satellites.

Loading next visibility...
Identifier
60061, 2024-113C
Orbit
LEO
Country
Flag of USUS
Related business
Manufacturer
SpaceX/Seattle
Mission
Operational Commercial Communications
Bus & Motor
STARLINK V2MD, Unknown motor
Mass
960 kg wet, ~910 kg dry
Launch date (UTC)
2024-06-19 (2 years ago)
Launch vehicle
FALCON 9
Launch site
Air Force Western Test Range (AFWTR)
Object type
Payload
Rocket body
Debris
Shape & HBR
Box + 2 Pan, 18.1 m
Radar Cross Section
36.964 m², Large (>1 m²)

Expand to show TLE details & history
Last TLE update: 18 hours ago

TLE from 18 hours ago
0 STARLINK-11167
1 60061U 24113C   26171.08704139  .00002664  00000-0  26813-4 0  9995
2 60061  53.1586  46.4476 0000551  61.1953 298.9121 15.69730201115946
Epoch: 2026-06-20T02:05Z
TLE epoch observation values (Epoch: 2026-06-20T02:05:20.376Z)
Latitude
0.00006°
Longitude
106.80604°
Altitude
360.404 km
Speed
7.694 km/s
True Right ascension
03h 05m 47s
True Declination
0° 00' 00"
Sunlit
Object was in daylight at epoch
Visualization orbit readout
Latitude
Unknown
Longitude
Unknown
Altitude
Unknown
Speed
Unknown
Apparent Right ascension
Unknown
Apparent Declination
Unknown
Sunlit
N/A
Visualization observer readout
Local Sidereal Time
07:23:33
Azimuth
Unknown
Elevation
Unknown
Doppler factor
Unknown
Orbital elements
Apogee altitude
360.301 km
Perigee altitude
359.559 km
Semi-major axis
6,738.067 km
Eccentricity
0.00006
Inclination
53.1586°
RAAN
46.4476°
Arg. of periapsis
61.1953°
True anomaly
298.90657°
Mean anomaly
298.9121°
Eccentric anomaly
298.90934°
Mean motion
3.9241 °/min
Orbital period
91.74 mins
BSTAR
0.000026813
Loading maneuver chart data...
Computing Atmospheric mass density...

Documentation

Showing up to 5 results
|